Le nostre stazioni meteo in Italia

Pubblicità
Il mio iltempo24.it
Luqa, Malta (16597): Temperatura & dewpoint: 21.04.2017 18:00:00 - 27.04.2017 18:00:00 (CEST)Luqa, Malta (16597): velocità del vento: 21.04.2017 18:00:00 - 27.04.2017 18:00:00 (CEST)Luqa, Malta (16597): direzione del vento: 21.04.2017 18:00:00 - 27.04.2017 18:00:00 (CEST)Luqa, Malta (16597): reduced air pressure: 21.04.2017 18:00:00 - 27.04.2017 18:00:00 (CEST)Luqa, Malta (16597): visibility: 21.04.2017 18:00:00 - 27.04.2017 18:00:00 (CEST)
Data & Tempo tt [°C] td [°C] ff [km/h] ff [kn] dd ppp [hPa] vv [km]
27.04.2017 18:00:00 19,0 15,0 22 12 SE - 10
27.04.2017 17:00:00 20,2 15,1 16 9 SE 1014,4 10
27.04.2017 16:00:00 20,0 15,0 18 10 SE - 9
27.04.2017 15:00:00 22,0 15,0 21 11 SE - 10
27.04.2017 14:00:00 21,6 14,9 18 10 ESE 1015,8 9
27.04.2017 13:00:00 22,0 15,0 18 10 ESE - 9
27.04.2017 12:00:00 21,0 15,0 18 10 ESE - 8
27.04.2017 11:00:00 20,5 15,1 16 9 E 1016,3 8
27.04.2017 10:00:00 20,0 15,0 18 10 ESE - 7
27.04.2017 09:00:00 19,0 16,0 16 9 ESE - 7
27.04.2017 08:00:00 16,6 16,5 13 7 E 1015,4 4,5
27.04.2017 07:00:00 16,0 16,0 11 6 E - 4,0
27.04.2017 06:00:00 16,0 16,0 13 7 E - 3,0
27.04.2017 05:00:00 16,1 16,0 13 7 E 1014,4 3,5
27.04.2017 04:00:00 16,0 16,0 11 6 ENE - 6
27.04.2017 03:00:00 16,0 15,0 11 6 E - 10
27.04.2017 02:00:00 16,1 15,0 13 7 ESE 1015,6 10
27.04.2017 01:00:00 16,0 15,0 13 7 SE - 10
27.04.2017 00:00:00 16,0 15,0 11 6 ESE - 10
26.04.2017 23:00:00 16,5 15,4 13 7 ESE 1016,7 10
26.04.2017 22:00:00 17,0 15,0 11 6 E - 10
26.04.2017 21:00:00 17,0 15,0 15 8 ESE - 10
26.04.2017 20:00:00 17,3 14,8 13 7 E 1015,5 10
26.04.2017 19:00:00 18,0 15,0 16 9 E - 10
26.04.2017 18:00:00 19,0 14,0 18 10 ESE - 10
26.04.2017 17:00:00 20,1 14,0 24 13 ESE 1014,4 10
26.04.2017 16:00:00 21,0 14,0 24 13 ESE - 10
26.04.2017 15:00:00 21,0 13,0 24 13 ESE - 10
26.04.2017 14:00:00 21,7 12,8 28 15 ESE 1015,2 10
26.04.2017 13:00:00 22,0 13,0 24 13 ESE - 10
26.04.2017 12:00:00 21,0 13,0 24 13 ESE - 10
26.04.2017 11:00:00 19,6 14,0 21 11 ESE 1015,9 10
26.04.2017 10:00:00 19,0 15,0 22 12 ESE - 10
26.04.2017 09:00:00 18,0 15,0 21 11 E - 10
26.04.2017 08:00:00 16,6 16,5 18 10 E 1015,4 7
26.04.2017 07:00:00 16,0 16,0 15 8 E - 4,0
26.04.2017 06:00:00 16,0 16,0 13 7 E - 6
26.04.2017 05:00:00 15,6 15,6 9 5 E 1015,1 6
26.04.2017 04:00:00 16,0 16,0 13 7 E - 6
26.04.2017 03:00:00 16,0 16,0 8 4 ESE - 6
26.04.2017 02:00:00 15,6 15,6 11 6 ESE 1015,4 8
26.04.2017 01:00:00 16,0 16,0 13 7 ESE - 8
26.04.2017 00:00:00 16,0 16,0 15 8 ESE - 8
25.04.2017 23:00:00 16,4 15,3 18 10 SE 1015,9 8
25.04.2017 22:00:00 17,0 15,0 22 12 ESE - 8
25.04.2017 21:00:00 17,0 15,0 28 15 ESE - 9
25.04.2017 20:00:00 16,5 15,1 24 13 ESE 1014,7 9
25.04.2017 19:00:00 17,0 15,0 26 14 ESE - 6
25.04.2017 18:00:00 17,0 14,0 28 15 ESE - 10
25.04.2017 17:00:00 17,9 14,0 26 14 ESE 1015,8 10
25.04.2017 16:00:00 18,0 14,0 26 14 ESE - 10
25.04.2017 15:00:00 19,0 14,0 26 14 SE - 10
25.04.2017 14:00:00 18,4 13,6 24 13 ESE 1017,5 10
25.04.2017 13:00:00 18,0 13,0 28 15 ESE - 10
25.04.2017 12:00:00 19,0 13,0 34 18 ESE - 10
25.04.2017 11:00:00 18,2 12,3 29 16 ESE 1017,7 10
25.04.2017 10:00:00 18,0 12,0 29 16 SE - 10
25.04.2017 09:00:00 17,0 12,0 31 17 SE - 10
25.04.2017 08:00:00 15,7 12,9 29 16 SE 1017,7 10
25.04.2017 07:00:00 15,0 13,0 22 12 SE - 10
25.04.2017 06:00:00 15,0 13,0 24 13 SE - 10
25.04.2017 05:00:00 14,5 12,7 22 12 SE 1017,3 10
25.04.2017 04:00:00 14,0 13,0 26 14 SE - 10
25.04.2017 03:00:00 14,0 13,0 21 11 SE - 10
25.04.2017 02:00:00 14,4 12,9 16 9 SE 1018,7 10
25.04.2017 01:00:00 15,0 13,0 21 11 SE - 10
25.04.2017 00:00:00 15,0 13,0 21 11 SE - 10
24.04.2017 23:00:00 15,1 13,2 22 12 SE 1019,8 10
24.04.2017 22:00:00 15,0 13,0 21 11 SE - 10
24.04.2017 21:00:00 15,0 13,0 18 10 SE - 10
24.04.2017 20:00:00 15,3 11,9 21 11 SSE 1019,6 10
24.04.2017 19:00:00 16,0 12,0 22 12 SSE - 10
24.04.2017 18:00:00 18,0 12,0 18 10 SSE - 10
24.04.2017 17:00:00 18,5 11,7 22 12 SE 1019,5 10
24.04.2017 16:00:00 19,0 11,0 22 12 SSE - 10
24.04.2017 15:00:00 19,0 11,0 18 10 SSE - 10
24.04.2017 14:00:00 18,6 10,3 15 8 S 1021,1 10
24.04.2017 13:00:00 19,0 11,0 18 10 SSE - 10
24.04.2017 12:00:00 18,0 10,0 15 8 SSE - 10
24.04.2017 11:00:00 16,9 9,8 13 7 S 1022,3 10
24.04.2017 10:00:00 17,0 9,0 15 8 S - 10
24.04.2017 09:00:00 16,0 9,0 11 6 S - 10
24.04.2017 08:00:00 15,0 9,0 11 6 S 1021,3 10
24.04.2017 07:00:00 11,0 8,0 5 3 SE - 10
24.04.2017 06:00:00 10,0 7,0 4 2 S - 10
24.04.2017 05:00:00 9,7 7,2 2 1 - 1020,9 10
24.04.2017 04:00:00 10,0 7,0 8 4 S - 10
24.04.2017 03:00:00 10,0 7,0 5 3 S - 10
24.04.2017 02:00:00 11,3 6,7 4 2 SSO 1021,6 10
24.04.2017 01:00:00 12,0 7,0 5 3 S - 10
24.04.2017 00:00:00 12,0 7,0 8 4 S - 10
23.04.2017 23:00:00 12,5 6,8 5 3 SSO 1022,5 10
23.04.2017 22:00:00 13,0 7,0 8 4 SSO - 10
23.04.2017 21:00:00 13,0 6,0 8 4 SO - 10
23.04.2017 20:00:00 13,8 5,7 9 5 OSO 1022,0 10
23.04.2017 19:00:00 15,0 6,0 11 6 OSO - 10
23.04.2017 18:00:00 16,0 6,0 13 7 O - 10
23.04.2017 17:00:00 17,0 6,7 15 8 OSO 1021,9 10
23.04.2017 16:00:00 17,0 6,0 15 8 OSO - 10
23.04.2017 15:00:00 17,0 7,0 16 9 O - 10
23.04.2017 14:00:00 17,3 6,4 18 10 O 1023,1 10
23.04.2017 13:00:00 18,0 7,0 18 10 O - 10
23.04.2017 12:00:00 17,0 6,0 18 10 O - 10
23.04.2017 11:00:00 16,3 5,7 18 10 O 1023,4 10
23.04.2017 10:00:00 16,0 6,0 16 9 ONO - 10
23.04.2017 09:00:00 16,0 6,0 16 9 NO - 10
23.04.2017 08:00:00 14,0 7,4 8 4 NO 1022,5 10
23.04.2017 07:00:00 12,0 7,0 11 6 ONO - 10
23.04.2017 06:00:00 11,0 7,0 11 6 NO - 10
23.04.2017 05:00:00 11,5 7,4 13 7 NO 1021,8 10
23.04.2017 04:00:00 12,0 7,0 11 6 NO - 10
23.04.2017 03:00:00 11,0 7,0 9 5 NO - 10
23.04.2017 02:00:00 12,4 8,8 11 6 NNO 1022,4 10
23.04.2017 01:00:00 13,0 9,0 15 8 NO - 10
23.04.2017 00:00:00 13,0 9,0 18 10 NO - 10
22.04.2017 23:00:00 13,4 8,7 22 12 NO 1023,5 10
22.04.2017 22:00:00 14,0 8,0 21 11 NO - 10
22.04.2017 21:00:00 14,0 8,0 21 11 NO - 10
22.04.2017 20:00:00 13,8 6,6 21 11 NO 1022,7 10
22.04.2017 19:00:00 15,0 6,0 24 13 NO - 10
22.04.2017 18:00:00 16,0 4,0 24 13 NO - 10
22.04.2017 17:00:00 16,6 3,5 22 12 NO 1022,5 10
22.04.2017 16:00:00 17,0 3,0 24 13 NO - 10
22.04.2017 15:00:00 17,0 2,0 18 10 N - 10
22.04.2017 14:00:00 16,5 2,0 16 9 N 1024,4 10
22.04.2017 13:00:00 17,0 1,0 18 10 N - 10
22.04.2017 12:00:00 16,0 5,0 16 9 N - 10
22.04.2017 11:00:00 15,0 4,9 21 11 N 1025,5 10
22.04.2017 10:00:00 15,0 6,0 15 8 N - 10
22.04.2017 09:00:00 13,0 8,0 15 8 N - 10
22.04.2017 08:00:00 10,8 8,4 9 5 NO 1025,5 10
22.04.2017 07:00:00 9,0 8,0 5 3 O - 10
22.04.2017 06:00:00 9,0 8,0 9 5 N - 8
22.04.2017 05:00:00 10,1 8,0 11 6 E 1024,2 10
22.04.2017 04:00:00 11,0 8,0 8 4 E - 10
22.04.2017 03:00:00 10,0 8,0 4 2 - - 10
22.04.2017 02:00:00 9,7 7,4 2 1 - 1024,6 10
22.04.2017 01:00:00 11,0 8,0 8 4 SSE - 10
22.04.2017 00:00:00 11,0 8,0 9 5 ESE - 10
21.04.2017 23:00:00 10,9 8,2 13 7 E 1025,4 10
21.04.2017 22:00:00 13,0 6,0 4 2 E - 10
21.04.2017 21:00:00 13,0 5,0 5 3 ESE - 10
21.04.2017 20:00:00 13,8 4,5 8 4 E 1024,0 10
21.04.2017 19:00:00 14,0 4,0 9 5 ESE - 10
21.04.2017 18:00:00 15,0 4,0 11 6 E - 10

tt = Temperatura
td = dewpoint
ff = velocità del vento
dd = direzione del vento
ppp = reduced air pressure
vv = visibility

Stazioni seguenti

WeatherPro
AMSI
MeteoEarth